Location: Härggis
(46.9540°N, 8.4897°E)
Time: 03:10:37
(UTC+00:00)

Meteor 2-10 Rocket - Pass Details

Date: 27 May 2022
Orbit: 733 x 885 km, 81.2° (Epoch: 26 June)

Event Time Altitude Azimuth Distance (km) Brightness Sun altitude
Rises 00:06:06 0° 350° (N) 3,460 8.1 -21.1°
Reaches altitude 10° 00:08:36 10° 353° (N) 2,502 7.2 -21.0°
Maximum altitude 00:14:15 66° 76° (ENE) 908 3.9 -20.8°
Enters shadow 00:16:52 31° 149° (SSE) 1,399 4.5 -20.7°
